Location: Lincoln Park
(32.7042°N, 117.0895°W)
Time: 18:14:50
(UTC+00:00)

Cosmos 2227 Rocket - Pass Details

Date: 26 June 2022
Orbit: 839 x 844 km, 71.0° (Epoch: 09 August)

Event Time Altitude Azimuth Distance (km) Brightness Sun altitude
Exits shadow 12:04:12 - 212° (SSW) 2,752 4.3 -7.7°
Reaches altitude 10° 12:05:00 10° 214° (SW) 2,453 4.0 -7.6°
Maximum altitude 12:10:32 57° 293° (WNW) 984 2.4 -6.6°
Drops below altitude 10° 12:16:06 10° 12° (NNE) 2,468 5.3 -5.6°
Sets 12:18:36 0° 16° (NNE) 3,406 6.2 -5.2°
